{"data":{"norad_id":57712,"intl_designator":"2023-129Q","name":"STARLINK-30348","alt_names":[],"object_type":"PAYLOAD","status":"ACTIVE","operator":null,"country":"US","launch_date":"2023-08-27","launch_site_code":"AFETR","launch_vehicle":null,"mission":null,"orbit_class":"UNKNOWN","rcs_meters":null,"size_class":null,"mass_kg":null,"dimensions":null,"purposes":["comms"],"wikipedia_slug":null,"has_3d_model":false,"image_url":null,"decayed_at":null,"tle_current":{"epoch":"2026-09-20T19:36:29.299392Z","epoch_age_seconds":103754,"freshness":"FRESH","line1":"1 57712U 23129Q   26263.81700578  .00014448  00000+0  53334-3 0  9995","line2":"2 57712  43.0007  96.0225 0001410 269.4782  90.5908 15.27590911170522","mean_motion":15.27590911,"eccentricity":0.000141,"inclination_deg":43.0007,"raan_deg":96.0225,"arg_perigee_deg":269.4782,"mean_anomaly_deg":90.5908,"bstar":0.00053334,"rev_number":17052,"period_min":94.266075402173,"perigee_km":482.04900214201,"apogee_km":483.9838474078,"semimajor_km":6861.1534247749,"source":"CELESTRAK","updated_at":"2026-09-21T09:00:33.676392Z"}}}